Hourly Data Report for June 07, 2020

BORDEN AWOS
ONTARIO
Current Station Operator: DND

44°16'20.000" N
79°54'42.000" W
222.50 m
611B002
71534
YBN

Download Data

Hourly Data (June 2020)
Hourly Data Report for June 7, 2020
TIME
LST
Temp Definition
°C
Dew Point Definition
°C
Rel Hum Definition
%
Precip. Amount Definition
mm

Wind Dir Definition
10's deg

Wind Spd Definition
km/h
Visibility Definition
km
Stn Press Definition
kPa
Hmdx Definition


Wind Chill Definition


Weather Definition


00:00 11.0 9.1 88   34 7 14.5 99.08     LegendNANA
01:00 9.4 7.7 89     0 14.5 99.13     LegendNANA
02:00 8.3 7.1 92   30 7 14.5 99.16     LegendNANA
03:00 9.2 8.1 93   32 6 14.5 99.18     LegendNANA
04:00 8.5 7.0 90   32 6 14.5 99.21     LegendNANA
05:00 8.1 6.4 89   36 6 14.5 99.23     LegendNANA
06:00 9.0 6.5 84   33 9 14.5 99.29     LegendNANA
07:00 10.3 6.2 76   1 13 14.5 99.28     LegendNANA
08:00 13.0 7.1 67   32 6 14.5 99.27     LegendNANA
09:00 13.4 6.5 63   34 19 14.5 99.37     LegendNANA
10:00 14.2 7.7 65   34 20 14.5 99.41     LegendNANA
11:00 14.7 7.0 60   35 20 14.5 99.41     LegendNANA
12:00 15.1 6.8 58   33 15 14.5 99.37     LegendNANA
13:00 14.8 6.1 56   35 19 14.5 99.34     LegendNANA
14:00 16.1 6.8 54   34 13 14.5 99.27     LegendNANA
15:00 16.2 7.8 58   1 15 14.5 99.26     LegendNANA
16:00 15.9 7.8 59   35 15 14.5 99.23     LegendNANA
17:00 16.0 7.8 58   31 13 14.5 99.22     LegendNANA
18:00 15.1 7.7 61   34 11 14.5 99.22     LegendNANA
19:00 13.5 7.2 66   33 7 14.5 99.22     LegendNANA
20:00 10.8 6.9 77   33 7 14.5 99.21     LegendNANA
21:00 9.3 6.7 84   31 4 14.5 99.26     LegendNANA
22:00 9.4 7.2 86   32 4 14.5 99.30     LegendNANA
23:00 7.1 5.9 92   35 4 14.5 99.30     LegendNANA

Notes on Data Quality.

Legend

  • E = Estimated
  • M = Missing
  • NA = Not Available*
  • [empty] = Indicates an unobserved value
Date modified: